Location: Peebles
(55.6412°N, 3.1714°W)
Time: 05:58:22
(UTC+00:00)

IGS 5A - Visible Passes

Search period start: 27 January 2022 00:00
Search period end: 06 February 2022 00:00
Orbit: 582 x 588 km, 97.5° (Epoch: 21 January)

Date Brightness Start Highest point End Pass type
(mag) Time Alt. Az. Time Alt. Az. Time Alt. Az.
27 Jan 5.6 19:01:41 14° NNE 19:01:41 14° NNE 19:02:25 10° N visible
27 Jan 6.3 20:38:07 12° NNW 20:38:07 12° NNW 20:38:24 10° NNW visible
28 Jan 5.6 19:08:07 15° NNE 19:08:07 15° NNE 19:09:01 10° N visible
28 Jan 6.3 20:44:33 12° NNW 20:44:33 12° NNW 20:44:53 10° NNW visible
29 Jan 5.5 19:14:32 16° NNE 19:14:32 16° NNE 19:15:36 10° N visible
29 Jan 6.4 20:50:58 12° NNW 20:50:58 12° NNW 20:51:20 10° NNW visible
30 Jan 5.4 19:20:57 17° N 19:20:57 17° N 19:22:09 10° N visible
30 Jan 6.4 20:57:22 12° NNW 20:57:22 12° NNW 20:57:46 10° NNW visible
31 Jan 5.4 19:27:21 19° N 19:27:21 19° N 19:28:43 10° N visible
31 Jan 6.4 21:03:47 12° NNW 21:03:47 12° NNW 21:04:12 10° NNW visible
01 Feb 5.3 19:33:46 20° N 19:33:46 20° N 19:35:16 10° N visible
01 Feb 6.5 21:10:12 12° NW 21:10:12 12° NW 21:10:37 10° NNW visible
02 Feb 5.2 19:40:10 22° N 19:40:10 22° N 19:41:48 10° N visible
02 Feb 6.5 21:16:36 12° NW 21:16:36 12° NW 21:17:00 10° NW visible
03 Feb 5.6 18:10:08 11° NE 18:10:08 11° NE 18:10:42 10° NE visible
03 Feb 5.1 19:46:34 24° N 19:46:34 24° N 19:48:20 10° N visible
03 Feb 6.6 21:23:00 12° NW 21:23:00 12° NW 21:23:22 10° NW visible
04 Feb 5.5 18:16:32 12° NE 18:16:32 12° NE 18:17:40 10° NNE visible
04 Feb 5.1 19:52:58 25° N 19:52:58 25° N 19:54:51 10° N visible
04 Feb 6.6 21:29:23 11° NW 21:29:23 11° NW 21:29:43 10° NW visible
05 Feb 5.4 18:22:56 13° NE 18:22:56 13° NE 18:24:28 10° NNE visible
05 Feb 5.0 19:59:22 27° N 19:59:22 27° N 20:01:22 10° N visible
05 Feb 6.7 21:35:47 11° NW 21:35:47 11° NW 21:36:02 10° NW visible
